[Iaude] MPEC D55: 2024 BA16 [a=2.82,e=0.65,i=1.5,H=28.9]

mpec at cfa.harvard.edu mpec at cfa.harvard.edu
Sun Feb 18 11:06:45 EST 2024


M.P.E.C. 2024-D55                             Issued 2024 February 18, 16:05 UT

     The Minor Planet Electronic Circulars contain information on unusual
         minor planets, routine data on comets and natural satellites,
         and occasional editorial announcements.  They are published
    on behalf of Division F of the International Astronomical Union by the
          Minor Planet Center, Smithsonian Astrophysical Observatory,
                          Cambridge, MA 02138, U.S.A.
			  
             Prepared using the Tamkin Foundation Computer Network

                              MPC at CFA.HARVARD.EDU
            URL https://www.minorplanetcenter.net/    ISSN 1523-6714

                                   2024 BA16                                    


Observations:
     K24B16A*1C2024 01 16.50055212 18 10.246-19 03 15.59         19.61GVED055G96
     K24B16A 1C2024 01 16.50570512 18 07.636-19 00 45.25         20.11GVED055G96
     K24B16A 1C2024 01 16.51602612 18 02.268-18 55 43.97         20.40GVED055G96
     K24B16A KC2024 01 16.54844912 17 46.260-18 40 12.50         20.85GVED055V06
     K24B16A KC2024 01 16.54909712 17 45.950-18 39 54.90         19.74GVED055V06
     K24B16A KC2024 01 16.54974712 17 45.660-18 39 36.60         20.72GVED055V06
     K24B16A KC2024 01 16.55039712 17 45.320-18 39 18.30         20.37GVED055V06
     K24B16A 1C2024 01 16.56024512 17 41.020-18 34 44.30         21.02GVED055G96
     K24B16A 1C2024 01 16.56048612 17 40.970-18 34 37.90         20.24GVED055G96
     K24B16A 1C2024 01 16.56072712 17 40.810-18 34 30.50         19.81GVED055G96
     K24B16A 1C2024 01 17.48651012 18 29.063-14 36 38.45         21.45GVED055G96
     K24B16A 1C2024 01 17.48803412 18 28.566-14 36 24.88         21.04GVED055G96
     K24B16A 1C2024 01 17.48955812 18 28.141-14 36 11.09         20.78GVED055G96
     K24B16A 1C2024 01 17.49108412 18 27.662-14 35 57.91         21.51GVED055G96

Observer details:
G96 Mt. Lemmon Survey.  Observer J. K. Hogan.  Measurers T. Beuden, V. F.
    Carvajal, D. Fay, J. B. Fazekas, D. C. Fuls, A. R. Gibbs, A. D. Grauer, H.
    Groeller, J. K. Hogan, R. A. Kowalski, S. M. Larson, G. J. Leonard, D.
    Rankin, R. L. Seaman, F. C. Shelly, K. W. Wierzchos.  1.5-m reflector +
    10K CCD.
V06 Catalina Sky Survey-Kuiper.  Observer G. J. Leonard.  Measurers T. Beuden,
    V. F. Carvajal, D. Fay, J. B. Fazekas, D. C. Fuls, A. R. Gibbs, A. D.
    Grauer, H. Groeller, J. K. Hogan, R. A. Kowalski, S. M. Larson, G. J.
    Leonard, D. Rankin, R. L. Seaman, F. C. Shelly, K. W. Wierzchos.  1.55-m
    reflector + 1K CCD.

Orbital elements:
2024 BA16                                                Earth MOID = 0.0007 AU
Epoch 2024 Mar. 31.0 TT = JDT 2460400.5                 Veres                   
M  17.26645              (2000.0)            P               Q                  
n   0.20836185     Peri.  172.75665     -0.25766053     -0.96593769             
a   2.8178892      Node   292.17232     +0.88519952     -0.22602601             
e   0.6528978      Incl.    1.48434     +0.38734075     -0.12600248             
P   4.73           H   28.94          G   0.15           U   8                  
Residuals in seconds of arc
240116 G96  0.3+  0.2-    240116 V06  0.0   0.1-    240117 G96  0.6+  0.2-
240116 G96 (1.7+  2.1-)   240116 V06  0.6-  0.0     240117 G96  0.2-  0.1-
240116 G96 (1.3+  3.0-)   240116 G96  0.1-  0.1-    240117 G96  0.1+  0.3+
240116 V06  0.0   0.5+    240116 G96  0.7+  0.3-    240117 G96  0.4-  0.1+
240116 V06  0.1-  0.2-    240116 G96  0.0   0.4+

Ephemeris:
2024 BA16                a,e,i = 2.82, 0.65, 1                   q = 0.9781
Date    TT    R. A. (2000) Decl.     Delta      r    Elong.  Phase     V
2024 01 19    12 18 29.7 -12 18 44   0.01836 0.9899   108.6    70.4    22.7
...
2024 02 03    12 14 51.6 -09 22 05   0.09253 1.0424   125.8    50.0    25.7
...
2024 02 11    12 09 55.1 -08 31 13   0.1322  1.0848   135.3    39.8    26.3
...
2024 02 17    12 05 08.4 -07 45 48   0.1630  1.1219   142.7    32.3    26.6
2024 02 18    12 04 17.2 -07 37 42   0.1683  1.1285   143.9    31.0    26.7
2024 02 19    12 03 25.4 -07 29 29   0.1736  1.1352   145.2    29.8    26.7
...
2024 02 25    11 58 05.5 -06 38 02   0.2067  1.1771   152.6    22.7    27.0
...
2024 03 04    11 51 02.0 -05 26 35   0.2553  1.2374   162.5    14.0    27.2
...
2024 03 19    11 40 36.2 -03 24 10   0.3654  1.3598   174.7     3.9    27.8

M. P. C. Staff               (C) Copyright 2024 MPC           M.P.E.C. 2024-D55





More information about the Iaude mailing list